User: anonymous   Login
Location: Unspecified
(0.0000°N, 0.0000°E)
Time: 02:12:55
(UTC+02:00)
Language:

Iridium 4 Rocket - Orbit

View from above orbital plane
View from above orbital plane
View from above satellite
View from above satellite

Ground track
Ground track

The orbit data is extracted from the following two-line orbital elements,

1 24797U 97020F   17268.62871998 +.00000118 +00000-0 +20309-4 0  9999
2 24797 086.8951 316.5972 0224625 343.0467 123.5153 14.44003092072409
Epoch (UTC): 25 September 2017 15:05:21
Eccentricity: 0.0224625
inclination: 86.8951°
perigee height: 585 km
apogee height: 905 km
right ascension of ascending node: 316.5972°
argument of perigee: 343.0467°
revolutions per day: 14.44003092
mean anomaly at epoch: 123.5153°
orbit number at epoch: 7240

The dashed part of the orbit path shows where the satellite is in the earth's shadow,  

DLR